| time (UTC) | temp C | wind direction | speed KPH | gust KPH | rain 1hr cm | rain 24hr cm | rain mn cm | humidity % | barometer mb |
| 20260504080305 | 8 | 14 | 0.0 | 0.0 | 0.00 | 0.00 | 0.00 | 59 | 1012.4 |
| 20260504070306 | 8 | 14 | 3.2 | 9.7 | 0.00 | 0.00 | 0.00 | 62 | 1013.0 |
| 20260504050305 | 11 | 54 | 9.7 | 20.9 | 0.00 | 0.00 | 0.00 | 44 | 1011.4 |
| 20260504045805 | 11 | 43 | 4.8 | 24.1 | 0.00 | 0.00 | 0.00 | 44 | 1011.3 |
| 20260504045305 | 11 | 41 | 12.9 | 25.7 | 0.00 | 0.00 | 0.00 | 44 | 1011.1 |
| 20260504044805 | 11 | 77 | 8.0 | 25.7 | 0.00 | 0.00 | 0.00 | 45 | 1011.2 |
| 20260504044305 | 11 | 41 | 11.3 | 20.9 | 0.00 | 0.00 | 0.00 | 45 | 1011.1 |
| 20260504043306 | 11 | 45 | 9.7 | 19.3 | 0.00 | 0.00 | 0.00 | 43 | 1011.0 |
| 20260504042805 | 12 | 47 | 9.7 | 20.9 | 0.00 | 0.00 | 0.00 | 43 | 1010.9 |
| 20260504042305 | 12 | 37 | 16.1 | 27.4 | 0.00 | 0.00 | 0.00 | 42 | 1010.9 |
| 20260504041805 | 12 | 32 | 11.3 | 20.9 | 0.00 | 0.00 | 0.00 | 42 | 1010.8 |
| 20260504041306 | 12 | 31 | 4.8 | 16.1 | 0.00 | 0.00 | 0.00 | 41 | 1010.6 |
| 20260504040805 | 12 | 56 | 11.3 | 24.1 | 0.00 | 0.00 | 0.00 | 41 | 1010.5 |
| 20260504035805 | 12 | 47 | 9.7 | 22.5 | 0.00 | 0.00 | 0.00 | 39 | 1010.1 |
| 20260504035306 | 12 | 65 | 8.0 | 16.1 | 0.00 | 0.00 | 0.00 | 38 | 1010.0 |
| 20260504034805 | 12 | 35 | 9.7 | 25.7 | 0.00 | 0.00 | 0.00 | 37 | 1009.8 |
| 20260504034305 | 12 | 50 | 11.3 | 24.1 | 0.00 | 0.00 | 0.00 | 37 | 1009.7 |
| 20260504033305 | 12 | 60 | 9.7 | 22.5 | 0.00 | 0.00 | 0.00 | 37 | 1009.5 |
| 20260504032804 | 13 | 51 | 11.3 | 25.7 | 0.00 | 0.00 | 0.00 | 36 | 1009.3 |
| 20260504032305 | 13 | 58 | 11.3 | 24.1 | 0.00 | 0.00 | 0.00 | 36 | 1009.1 |
| 20260504031806 | 13 | 39 | 11.3 | 25.7 | 0.00 | 0.00 | 0.00 | 36 | 1009.0 |
| 20260504031305 | 13 | 43 | 9.7 | 25.7 | 0.00 | 0.00 | 0.00 | 36 | 1008.8 |
| 20260504030805 | 13 | 52 | 9.7 | 20.9 | 0.00 | 0.00 | 0.00 | 36 | 1008.8 |
| 20260504030305 | 13 | 60 | 8.0 | 20.9 | 0.00 | 0.00 | 0.00 | 36 | 1008.6 |
| 20260504025806 | 13 | 47 | 8.0 | 20.9 | 0.00 | 0.00 | 0.00 | 36 | 1008.5 |
| 20260504024805 | 13 | 53 | 9.7 | 19.3 | 0.00 | 0.00 | 0.00 | 35 | 1008.3 |
| 20260504024305 | 14 | 60 | 9.7 | 19.3 | 0.00 | 0.00 | 0.00 | 35 | 1008.2 |
| 20260504023805 | 14 | 66 | 4.8 | 19.3 | 0.00 | 0.00 | 0.00 | 35 | 1008.0 |
| 20260504023305 | 14 | 60 | 4.8 | 20.9 | 0.00 | 0.00 | 0.00 | 35 | 1008.0 |
| 20260504022804 | 14 | 57 | 8.0 | 19.3 | 0.00 | 0.00 | 0.00 | 34 | 1007.9 |
| 20260504022305 | 14 | 50 | 6.4 | 16.1 | 0.00 | 0.00 | 0.00 | 34 | 1007.8 |
| 20260504020805 | 15 | 71 | 9.7 | 19.3 | 0.00 | 0.00 | 0.00 | 34 | 1007.4 |
| 20260504020305 | 15 | 42 | 8.0 | 20.9 | 0.00 | 0.00 | 0.00 | 34 | 1007.3 |
| 20260504015806 | 15 | 55 | 9.7 | 20.9 | 0.00 | 0.00 | 0.00 | 33 | 1007.1 |
| 20260504015305 | 15 | 55 | 8.0 | 19.3 | 0.00 | 0.00 | 0.00 | 33 | 1007.1 |
| 20260504014805 | 15 | 70 | 9.7 | 20.9 | 0.00 | 0.00 | 0.00 | 32 | 1007.0 |
| 20260504014306 | 16 | 57 | 8.0 | 22.5 | 0.00 | 0.00 | 0.00 | 33 | 1007.0 |
| 20260504013305 | 16 | 66 | 11.3 | 19.3 | 0.00 | 0.00 | 0.00 | 31 | 1006.6 |
| 20260504012805 | 17 | 53 | 14.5 | 32.2 | 0.00 | 0.00 | 0.00 | 31 | 1006.5 |
| 20260504012306 | 17 | 64 | 9.7 | 24.1 | 0.00 | 0.00 | 0.00 | 31 | 1006.3 |
| 20260504011805 | 17 | 82 | 9.7 | 24.1 | 0.00 | 0.00 | 0.00 | 31 | 1006.2 |
| 20260504011305 | 17 | 46 | 9.7 | 22.5 | 0.00 | 0.00 | 0.00 | 31 | 1006.1 |
| 20260504010805 | 17 | 57 | 9.7 | 22.5 | 0.00 | 0.00 | 0.00 | 31 | 1005.9 |
| 20260504010306 | 17 | 39 | 11.3 | 32.2 | 0.00 | 0.00 | 0.00 | 31 | 1005.9 |
| 20260504005805 | 18 | 53 | 11.3 | 27.4 | 0.00 | 0.00 | 0.00 | 31 | 1005.8 |
| 20260504005306 | 18 | 38 | 12.9 | 19.3 | 0.00 | 0.00 | 0.00 | 31 | 1005.8 |
| 20260504004805 | 18 | 37 | 9.7 | 27.4 | 0.00 | 0.00 | 0.00 | 31 | 1005.7 |
| 20260504004306 | 18 | 54 | 11.3 | 29.0 | 0.00 | 0.00 | 0.00 | 30 | 1005.5 |
| 20260504003804 | 18 | 45 | 8.0 | 20.9 | 0.00 | 0.00 | 0.00 | 31 | 1005.5 |
| 20260504002807 | 18 | 48 | 9.7 | 29.0 | 0.00 | 0.00 | 0.00 | 30 | 1005.5 |
| 20260504002305 | 18 | 56 | 11.3 | 19.3 | 0.00 | 0.00 | 0.00 | 30 | 1005.4 |
| 20260504001305 | 19 | 38 | 9.7 | 22.5 | 0.00 | 0.00 | 0.00 | 30 | 1005.3 |
| 20260504000805 | 19 | 47 | 9.7 | 24.1 | 0.00 | 0.00 | 0.00 | 30 | 1005.2 |
| 20260504000306 | 19 | 46 | 9.7 | 16.1 | 0.00 | 0.00 | 0.00 | 30 | 1005.3 |
| 20260503235805 | 19 | 48 | 8.0 | 19.3 | 0.00 | 0.00 | 0.00 | 30 | 1005.2 |
| 20260503235305 | 19 | 32 | 11.3 | 22.5 | 0.00 | 0.00 | 0.00 | 29 | 1005.2 |
| 20260503234805 | 19 | 44 | 9.7 | 22.5 | 0.00 | 0.00 | 0.00 | 30 | 1005.3 |
| 20260503234306 | 19 | 43 | 11.3 | 32.2 | 0.00 | 0.00 | 0.00 | 30 | 1005.2 |
| 20260503233805 | 19 | 56 | 9.7 | 24.1 | 0.00 | 0.00 | 0.00 | 29 | 1005.2 |
| 20260503233305 | 19 | 37 | 14.5 | 22.5 | 0.00 | 0.00 | 0.00 | 29 | 1005.1 |
| 20260503232804 | 19 | 42 | 9.7 | 20.9 | 0.00 | 0.00 | 0.00 | 29 | 1005.0 |
| 20260503232306 | 20 | 37 | 16.1 | 25.7 | 0.00 | 0.00 | 0.00 | 29 | 1005.1 |
| 20260503231805 | 20 | 27 | 11.3 | 20.9 | 0.00 | 0.00 | 0.00 | 29 | 1005.1 |
| 20260503231305 | 20 | 57 | 11.3 | 25.7 | 0.00 | 0.00 | 0.00 | 28 | 1005.0 |
| 20260503230305 | 20 | 46 | 11.3 | 25.7 | 0.00 | 0.00 | 0.00 | 28 | 1005.0 |
| 20260503225805 | 20 | 44 | 11.3 | 27.4 | 0.00 | 0.00 | 0.00 | 28 | 1005.0 |
| 20260503225305 | 20 | 44 | 11.3 | 27.4 | 0.00 | 0.00 | 0.00 | 29 | 1005.1 |
| 20260503224806 | 20 | 38 | 12.9 | 27.4 | 0.00 | 0.00 | 0.00 | 28 | 1005.1 |
| 20260503224305 | 20 | 59 | 11.3 | 27.4 | 0.00 | 0.00 | 0.00 | 27 | 1005.0 |
| 20260503223805 | 21 | 35 | 9.7 | 25.7 | 0.00 | 0.00 | 0.00 | 27 | 1004.9 |
| 20260503223304 | 21 | 60 | 16.1 | 29.0 | 0.00 | 0.00 | 0.00 | 26 | 1004.9 |
| 20260503222806 | 21 | 60 | 12.9 | 33.8 | 0.00 | 0.00 | 0.00 | 26 | 1004.9 |
| 20260503222305 | 22 | 69 | 11.3 | 33.8 | 0.00 | 0.00 | 0.00 | 25 | 1004.8 |
| 20260503221805 | 22 | 50 | 9.7 | 25.7 | 0.00 | 0.00 | 0.00 | 25 | 1004.8 |
| 20260503221305 | 22 | 3 | 6.4 | 19.3 | 0.00 | 0.00 | 0.00 | 25 | 1004.7 |
| 20260503220806 | 22 | 37 | 6.4 | 19.3 | 0.00 | 0.00 | 0.00 | 25 | 1004.8 |
| 20260503220304 | 22 | 31 | 9.7 | 19.3 | 0.00 | 0.00 | 0.00 | 26 | 1004.8 |
| 20260503215805 | 22 | 64 | 8.0 | 19.3 | 0.00 | 0.00 | 0.00 | 24 | 1004.9 |
| 20260503215306 | 22 | 32 | 9.7 | 19.3 | 0.00 | 0.00 | 0.00 | 25 | 1004.9 |
| 20260503214805 | 22 | 28 | 4.8 | 14.5 | 0.00 | 0.00 | 0.00 | 26 | 1005.0 |
| 20260503214305 | 22 | 42 | 8.0 | 16.1 | 0.00 | 0.00 | 0.00 | 25 | 1005.0 |
| 20260503213805 | 22 | 75 | 4.8 | 14.5 | 0.00 | 0.00 | 0.00 | 24 | 1005.0 |
| 20260503213305 | 22 | 15 | 8.0 | 14.5 | 0.00 | 0.00 | 0.00 | 24 | 1005.2 |
| 20260503212805 | 22 | 36 | 9.7 | 19.3 | 0.00 | 0.00 | 0.00 | 25 | 1005.2 |
| 20260503211804 | 22 | 77 | 3.2 | 14.5 | 0.00 | 0.00 | 0.00 | 24 | 1005.2 |
| 20260503211305 | 22 | 23 | 6.4 | 22.5 | 0.00 | 0.00 | 0.00 | 24 | 1005.3 |
| 20260503210805 | 22 | 35 | 6.4 | 14.5 | 0.00 | 0.00 | 0.00 | 25 | 1005.3 |
| 20260503205805 | 22 | 60 | 8.0 | 19.3 | 0.00 | 0.00 | 0.00 | 25 | 1005.4 |
| 20260503205305 | 22 | 41 | 4.8 | 16.1 | 0.00 | 0.00 | 0.00 | 24 | 1005.5 |
| 20260503204805 | 21 | 44 | 4.8 | 16.1 | 0.00 | 0.00 | 0.00 | 26 | 1005.6 |
| 20260503204304 | 21 | 61 | 8.0 | 19.3 | 0.00 | 0.00 | 0.00 | 25 | 1005.5 |
| 20260503203806 | 21 | 49 | 8.0 | 19.3 | 0.00 | 0.00 | 0.00 | 25 | 1005.6 |
| 20260503203305 | 21 | 50 | 8.0 | 16.1 | 0.00 | 0.00 | 0.00 | 25 | 1005.7 |
| 20260503202305 | 21 | 55 | 9.7 | 19.3 | 0.00 | 0.00 | 0.00 | 26 | 1005.8 |
| 20260503201806 | 21 | 22 | 4.8 | 24.1 | 0.00 | 0.00 | 0.00 | 26 | 1005.8 |
| 20260503201305 | 21 | 56 | 8.0 | 14.5 | 0.00 | 0.00 | 0.00 | 25 | 1005.9 |
| 20260503200805 | 21 | 215 | 4.8 | 14.5 | 0.00 | 0.00 | 0.00 | 24 | 1005.9 |
| 20260503200305 | 21 | 59 | 4.8 | 14.5 | 0.00 | 0.00 | 0.00 | 27 | 1005.9 |
| 20260503195806 | 21 | 28 | 6.4 | 16.1 | 0.00 | 0.00 | 0.00 | 26 | 1006.0 |
| 20260503195305 | 21 | 47 | 4.8 | 19.3 | 0.00 | 0.00 | 0.00 | 26 | 1006.1 |
| 20260503194805 | 21 | 27 | 8.0 | 19.3 | 0.00 | 0.00 | 0.00 | 26 | 1006.2 |
| 20260503194305 | 21 | 41 | 8.0 | 19.3 | 0.00 | 0.00 | 0.00 | 25 | 1006.2 |
| 20260503193305 | 21 | 36 | 6.4 | 20.9 | 0.00 | 0.00 | 0.00 | 25 | 1006.2 |
| 20260503192805 | 21 | 28 | 3.2 | 14.5 | 0.00 | 0.00 | 0.00 | 24 | 1006.3 |
| 20260503191806 | 21 | 282 | 6.4 | 12.9 | 0.00 | 0.00 | 0.00 | 25 | 1006.5 |
| 20260503191305 | 21 | 37 | 4.8 | 14.5 | 0.00 | 0.00 | 0.00 | 25 | 1006.6 |
| 20260503190805 | 21 | 358 | 8.0 | 16.1 | 0.00 | 0.00 | 0.00 | 26 | 1006.6 |
| 20260503190305 | 21 | 26 | 6.4 | 14.5 | 0.00 | 0.00 | 0.00 | 26 | 1006.7 |
| 20260503185806 | 20 | 17 | 9.7 | 19.3 | 0.00 | 0.00 | 0.00 | 26 | 1006.9 |
| 20260503185305 | 20 | 1 | 8.0 | 14.5 | 0.00 | 0.00 | 0.00 | 26 | 1006.9 |
| 20260503184805 | 20 | 1 | 9.7 | 19.3 | 0.00 | 0.00 | 0.00 | 26 | 1007.1 |
| 20260503184305 | 20 | 27 | 6.4 | 14.5 | 0.00 | 0.00 | 0.00 | 27 | 1007.1 |
| 20260503183806 | 20 | 23 | 4.8 | 19.3 | 0.00 | 0.00 | 0.00 | 28 | 1007.2 |
| 20260503183305 | 20 | 44 | 4.8 | 19.3 | 0.00 | 0.00 | 0.00 | 28 | 1007.2 |
| 20260503182805 | 20 | 36 | 9.7 | 19.3 | 0.00 | 0.00 | 0.00 | 28 | 1007.3 |
| 20260503182305 | 20 | 30 | 8.0 | 14.5 | 0.00 | 0.00 | 0.00 | 28 | 1007.3 |
| 20260503181805 | 20 | 13 | 8.0 | 16.1 | 0.00 | 0.00 | 0.00 | 27 | 1007.5 |
| 20260503181306 | 20 | 44 | 6.4 | 19.3 | 0.00 | 0.00 | 0.00 | 27 | 1007.6 |
| 20260503180805 | 20 | 39 | 9.7 | 20.9 | 0.00 | 0.00 | 0.00 | 27 | 1007.6 |
| 20260503175806 | 20 | 52 | 8.0 | 14.5 | 0.00 | 0.00 | 0.00 | 26 | 1007.7 |
| 20260503175305 | 20 | 55 | 8.0 | 16.1 | 0.00 | 0.00 | 0.00 | 27 | 1007.8 |
| 20260503174805 | 20 | 21 | 8.0 | 16.1 | 0.00 | 0.00 | 0.00 | 26 | 1007.9 |
| 20260503174305 | 20 | 46 | 9.7 | 20.9 | 0.00 | 0.00 | 0.00 | 26 | 1007.9 |
| 20260503173806 | 20 | 21 | 9.7 | 19.3 | 0.00 | 0.00 | 0.00 | 27 | 1008.0 |
| 20260503173305 | 20 | 15 | 8.0 | 16.1 | 0.00 | 0.00 | 0.00 | 27 | 1008.1 |
| 20260503172305 | 20 | 0 | 9.7 | 19.3 | 0.00 | 0.00 | 0.00 | 28 | 1008.2 |
| 20260503171806 | 20 | 3 | 3.2 | 16.1 | 0.00 | 0.00 | 0.00 | 27 | 1008.3 |
| 20260503171305 | 20 | 16 | 8.0 | 14.5 | 0.00 | 0.00 | 0.00 | 27 | 1008.3 |
| 20260503170805 | 20 | 29 | 4.8 | 16.1 | 0.00 | 0.00 | 0.00 | 28 | 1008.3 |
| 20260503170305 | 19 | 18 | 8.0 | 22.5 | 0.00 | 0.00 | 0.00 | 28 | 1008.4 |
| 20260503150306 | 13 | 335 | 3.2 | 4.8 | 0.00 | 0.00 | 0.00 | 40 | 1009.3 |
| 20260503140305 | 10 | 330 | 0.0 | 0.0 | 0.00 | 0.00 | 0.00 | 45 | 1009.6 |
| 20260503131305 | 6 | 330 | 0.0 | 0.0 | 0.00 | 0.00 | 0.00 | 53 | 1009.7 |
| 20260503130805 | 6 | 330 | 0.0 | 0.0 | 0.00 | 0.00 | 0.00 | 55 | 1009.7 |
| 20260503110804 | 6 | 330 | 0.0 | 0.0 | 0.00 | 0.00 | 0.00 | 50 | 1009.8 |
| 20260503110305 | 6 | 330 | 0.0 | 0.0 | 0.00 | 0.00 | 0.00 | 49 | 1009.9 |
| 20260503090305 | 8 | 329 | 1.6 | 4.8 | 0.00 | 0.00 | 0.00 | 44 | 1009.8 |
| 20260503080805 | 9 | 268 | 0.0 | 1.6 | 0.00 | 0.00 | 0.00 | 40 | 1009.8 |